Home   Weather   Ganderkesee   Past weeks

Flag for Germany Past Weather in Ganderkesee, Lower Saxony, Germany — Yesterday and Last 2 Weeks

Now
23 °F

Ice fog.


Feels Like: 23 °F
Forecast: 23 / 30 °F
Wind: 2 mph from South

Location: Bremen Airport

Current Time: Jan 17, 2017 at 2:25:10 pm

Latest Report: Jan 17, 2017 at 1:50 pm


Visibility: 2 mi

Pressure: 30.66 "Hg

Humidity: 93%

Dew Point: 21 °F

Location of GanderkeseeLocation

Past Weather in Ganderkesee — Graph

°F

Ganderkesee Temperature Yesterday

Maximum temperature yesterday: 30 °F (at 12:50 pm)
Minimum temperature yesterday: 16 °F (at 7:20 am)
Average temperature yesterday: 22 °F

High & Low Weather Summary for the Past Weeks

 TemperatureHumidityPressure
High46 °F (Jan 4, 12:50 am)100% (Jan 3, 7:50 pm)30.77 "Hg (Jan 3, 7:50 pm)
Low14 °F (Jan 6, 3:50 am)44% (Jan 4, 11:20 pm)29.00 "Hg (Jan 13, 3:50 am)
Average33 °F87%30.04 "Hg
* Reported Jan 2 1:20 pm — Jan 17 1:20 pm, Ganderkesee, Weather by CustomWeather, © 2017

Note: Actual official high and low records may vary slightly from our data, if they occured in-between our weather recording intervals... More about our weather records

Advertising

Ganderkesee Weather History for the Previous 24 Hours

Scroll right to see more
 ConditionsComfort  
Time TempWeatherWind HumidityBarometerVisibility
1:20 pm
Tue, Jan 17
23 °FIce fog.No wind93%30.66 "Hg2 mi
12:50 pm21 °FIce fog.2 mph93%30.66 "Hg1 mi
12:20 pm21 °FIce fog.3 mph93%30.66 "Hg1 mi
11:50 am21 °FIce fog.2 mph93%30.66 "Hg1 mi
11:20 am19 °FCold.2 mph93%30.66 "Hg1 mi
10:50 am19 °FCold.2 mph93%30.66 "Hg1 mi
10:20 am19 °FSnow. Cloudy.2 mph93%30.66 "Hg2 mi
9:50 am18 °FSnow. Ice fog.2 mph93%30.63 "Hg2 mi
9:20 am16 °FIce fog.3 mph93%30.63 "Hg2 mi
8:50 am16 °FSleet. Cloudy.2 mph93%30.63 "Hg2 mi
8:20 am18 °FIce fog.5 mph93%30.63 "Hg1 mi
7:50 am18 °FIce fog.3 mph93%30.63 "Hg1 mi
7:20 am18 °FIce fog.3 mph93%30.60 "Hg0 mi
6:50 am18 °FIce fog.2 mph93%30.60 "Hg0 mi
6:20 am18 °FIce fog.2 mph93%30.60 "Hg1 mi
5:50 am18 °FIce fog.3 mph93%30.57 "Hg1 mi
5:20 am18 °FIce fog.3 mph93%30.57 "Hg1 mi
4:50 am18 °FIce fog.3 mph93%30.57 "Hg0 mi
4:20 am18 °FIce fog.3 mph93%30.57 "Hg1 mi
3:50 am16 °FPassing clouds.3 mph93%30.57 "Hg5 mi
3:20 am16 °FPassing clouds.3 mph93%30.57 "Hg5 mi
2:50 am16 °FPassing clouds.5 mph93%30.57 "Hg5 mi
2:20 am14 °FPassing clouds.3 mph92%30.54 "Hg5 mi
1:50 am16 °FPassing clouds.3 mph93%30.54 "Hg4 mi
1:20 am16 °FClear.2 mph93%30.54 "Hg4 mi
12:50 am18 °FClear.2 mph93%30.54 "Hg4 mi
12:20 am18 °FClear.3 mph93%30.54 "Hg4 mi
11:50 pm
Mon, Jan 16
16 °FIce fog.3 mph93%30.51 "Hg3 mi
11:20 pm16 °FIce fog.3 mph93%30.51 "Hg3 mi
10:50 pm18 °FIce fog.3 mph93%30.51 "Hg2 mi
10:20 pm19 °FIce fog.2 mph93%30.51 "Hg2 mi
9:50 pm21 °FLight fog.2 mph93%30.48 "Hg1 mi
9:20 pm18 °FLight fog.3 mph93%30.48 "Hg1 mi
8:50 pm18 °FIce fog.3 mph93%30.48 "Hg0 mi
8:20 pm18 °FIce fog.3 mph100%30.48 "Hg0 mi
7:50 pm18 °FIce fog.3 mph93%30.45 "Hg0 mi
7:20 pm21 °FIce fog.3 mph93%30.45 "Hg0 mi
6:50 pm21 °FIce fog.2 mph93%30.42 "Hg0 mi
6:20 pm25 °FIce fog.2 mph100%30.42 "Hg1 mi
5:50 pm25 °FIce fog.3 mph100%30.42 "Hg1 mi
5:20 pm27 °FFog.6 mph93%30.42 "HgN/A
4:50 pm27 °FPassing clouds.5 mph93%30.39 "HgN/A
4:20 pm27 °FPassing clouds.6 mph93%30.39 "HgN/A
3:50 pm28 °FPassing clouds.7 mph93%30.39 "HgN/A
3:20 pm30 °FPassing clouds.5 mph86%30.39 "HgN/A
2:50 pm30 °FPassing clouds.6 mph86%30.39 "HgN/A
2:20 pm30 °FPassing clouds.3 mph93%30.36 "HgN/A
Weather by CustomWeather, © 2017

See weather overviewHow to use our weather pages